Regional Weather Roundup
Issued by NWS Kansas City/Pleasant Hill, MO

Home | Current Version | Previous Version | Text Only | Print | Product List | Glossary On
Versions: 1 2 3 4 5 6 7 8 9 10 11 12 13 14 15 16 17 18 19 20 21 22 23 24 25 26 27 28 29 30 31 32 33 34 35 36 37 38 39 40 41 42 43 44 45 46 47 48 49 50
000
ASUS43 KEAX 262110
RWREAX

WEATHER ROUNDUP FOR EASTERN KANSAS AND NORTHWEST MISSOURI
NATIONAL WEATHER SERVICE KANSAS CITY/PLEASANT HILL MO
400 PM CDT SUN MAR 26 2017

KSZ040-057-103>105-MOZ028-029-037-043-262200-
...KANSAS CITY METROPOLITAN AREA...

CITY           SKY/WX    TMP DP  RH WIND       PRES   REMARKS
K.C. INTL      CLOUDY    51  44  77 N3        29.90F
K.C. DOWNTOWN  CLOUDY    53  44  71 W3        29.90F
LEES SUMMIT    CLOUDY    53  45  74 SW8       29.90F
OLATHE - IXD   CLOUDY    51  44  77 CALM      29.90F
OLATHE - OJC   CLOUDY    51  45  79 W7        29.90S
LAWRENCE       CLOUDY    53  45  74 N5        29.90F

$$

MOZ001>008-011>017-020>025-030>033-038>040-044>046-053-054-262200-
...NORTHERN AND CENTRAL MISSOURI...

CITY           SKY/WX    TMP DP  RH WIND       PRES   REMARKS
ST. JOSEPH     CLOUDY    49  44  83 NW6       29.91F
MOSBY          CLOUDY    52  43  71 CALM      29.90F
WARRENSBURG    CLOUDY    54  45  71 SW9       29.90F
WHITEMAN AFB   CLOUDY    56  51  82 W7        29.89F
CLINTON        CLOUDY    55  48  76 SW5       29.91F
SEDALIA        CLOUDY    56  47  71 W3        29.91F
WARSAW         NOT AVBL
CHILLICOTHE      N/A     51  43  74 NW5       29.92S
KIRKSVILLE     CLOUDY    49  45  86 W8        29.90S

$$

MOZ041-047>049-056>058-063>065-088>090-097-262200-
...EASTERN AND SOUTHERN MISSOURI...

CITY           SKY/WX    TMP DP  RH WIND       PRES   REMARKS
ST. LOUIS INTL CLOUDY    62  49  62 W13       29.90S
SPIRIT OF STL  CLOUDY    60  51  72 W7        29.90S
COLUMBIA       CLOUDY    57  50  77 SW12      29.91R
JEFFERSON CITY CLOUDY    60  48  64 W13       29.90F
ROLLA          PTSUNNY   61  50  67 W10       29.89F
OSAGE BEACH    PTSUNNY  N/A N/A N/A NW3       29.91F
SPRINGFIELD    CLOUDY    65  49  56 VRB5      29.88F
BRANSON        PTSUNNY   66  48  52 SE6       29.90F
JOPLIN         CLOUDY    67  48  50 VRB3      29.87F
WEST PLAINS    CLOUDY    65  48  54 S12       29.92F

$$

IAZ060-094-KSZ022-034>040-054-083-096-NEZ052-066-093-262200-
...KANSAS...SOUTHEAST NEBRASKA AND IOWA...

CITY           SKY/WX    TMP DP  RH WIND       PRES   REMARKS
TOPEKA         CLOUDY    53  46  77 VRB3      29.89F
MANHATTAN      CLOUDY    52  45  77 NE10      29.87F
EMPORIA        CLOUDY    53  48  83 E9        29.85F
CHANUTE        CLOUDY    63  48  58 SE8       29.85F
WICHITA        TSTM      58  48  69 NW12      29.79R
OMAHA          CLOUDY    49  41  74 N9        29.90F
LINCOLN        CLOUDY    48  41  76 N3        29.92F
FALLS CITY     CLOUDY    48  42  80 N7        29.90F
LAMONI         CLOUDY    48  43  82 W8        29.89F
DES MOINES     CLOUDY    48  44  86 W10       29.89S

$$




USA.gov is the U.S. government's official web portal to all federal, state and local government web resources and services.